[[{"header":{"parameterUnit":"m.s-1","parameterCategory":1,"la1":30.2991,"la2":30.254,"lo1":-89.0895,"lo2":-89.0444,"dy":0.0017,"dx":0.0017,"nx":28,"ny":28,"refTime":"2024-08-30T21:00:00:Z","depth":0,"parameterNumber":2,"parameterNumberName":"U-component_of_WINDS"},"data":[0,0,0,0,0,0,0,0,0,0,0,0,0,0,0,0,0,0,0,0,0,0,0,0,0,0,0,0,0,0,0,0,0,0,0,0,0,0,0,0,0,0,0,0,0,0,0,0,0,0,0,0,0,0,0,0,0,0,-6.3636,-6.3636,0,-6.3591,-6.359,-6.359,-6.3462,-6.3459,-6.3457,-6.3454,-6.3407,-6.3408,-6.3409,0,0,0,0,0,0,0,0,0,0,0,0,0,-6.3617,-6.3618,-6.3636,-6.3636,-6.3635,-6.3591,-6.359,-6.3589,-6.3463,-6.3459,-6.3456,-6.3453,-6.3406,-6.3408,-6.3409,0,0,0,0,0,0,0,0,0,0,0,0,0,-6.3604,-6.3618,-6.3636,-6.3567,-6.356,-6.3591,-6.359,-6.3589,-6.3463,-6.3459,-6.3455,-6.3451,-6.3406,-6.3408,-6.341,-6.3504,0,0,-6.3416,-6.3416,0,0,0,0,0,0,0,0,-6.3604,-6.3604,-6.3577,-6.3571,-6.3564,-6.3528,-6.3566,-6.3561,-6.3464,-6.35,-6.3454,-6.3449,-6.345,-6.3448,-6.3449,-6.3502,-6.35,-6.3416,-6.3417,-6.3418,-6.3418,0,0,0,0,0,0,0,-6.3606,-6.3606,-6.3618,-6.3577,-6.3569,-6.3538,-6.3532,-6.3564,-6.3499,-6.3496,-6.3487,-6.3484,-6.3446,-6.3447,-6.3447,-6.3499,-6.3416,-6.3417,-6.3419,-6.3419,-6.3629,-6.3634,0,0,0,0,0,0,-6.3616,-6.3607,-6.362,-6.3617,-6.3574,-6.3542,-6.3535,-6.3544,-6.3498,-6.3487,-6.3487,-6.3478,-6.3446,-6.3445,-6.3445,-6.3551,-6.3418,-6.342,-6.3421,-6.3625,-6.363,-6.3635,0,0,0,0,0,0,-6.3616,-6.3619,-6.3621,-6.361,-6.3608,-6.3547,-6.3558,-6.3545,-6.3546,-6.3491,-6.3479,-6.35,-6.3443,-6.3442,-6.3491,-6.3547,-6.342,-6.3422,-6.362,-6.3627,-6.3633,-6.3765,0,0,0,0,0,0,-6.3616,-6.3619,-6.3653,-6.3611,-6.3609,-6.3667,-6.3561,-6.3547,-6.355,-6.3537,-6.35,-6.349,-6.3439,-6.3488,-6.3493,-6.3548,-6.3424,-6.3614,-6.3623,-6.3631,-6.3755,-6.3776,-6.3793,0,0,0,0,0,-6.3616,-6.3692,-6.3656,-6.3658,-6.365,-6.3671,-6.3669,-6.3609,-6.3555,-6.3589,-6.3555,-6.3491,-6.3543,-6.3495,-6.3498,-6.3555,-6.361,-6.3621,-6.363,-6.3747,-6.3772,-6.3792,0,0,0,0,0,0,-6.3741,-6.3685,-6.3644,-6.3709,-6.3696,-6.3649,-6.3689,-6.3638,-6.3639,-6.3627,-6.3554,-6.3547,-6.3605,-6.3586,-6.3534,-6.3645,-6.3566,-6.3577,-6.3654,-6.3677,-6.3695,-6.3696,-6.3425,0,0,0,0,0,-6.3777,-6.3798,-6.3748,-6.381,-6.3806,-6.3751,-6.3757,-6.3713,-6.3696,-6.369,-6.3658,-6.3645,-6.3658,-6.3667,-6.3676,-6.3755,-6.3744,-6.3797,-6.3815,-6.3831,-6.3839,-6.3879,-6.3901,-6.3668,-6.3668,-6.3667,0,0,-6.3848,-6.3821,-6.3838,-6.3835,-6.3819,-6.3843,-6.3746,-6.3775,-6.3792,-6.3694,-6.3736,-6.3715,-6.3695,-6.3759,-6.3786,-6.3745,-6.3903,-6.3844,-6.3857,-6.3856,-6.3891,-6.3913,-6.3933,-6.3674,-6.3673,-6.3672,0,0,-6.3991,-6.3974,-6.4023,-6.4011,-6.399,-6.3953,-6.3966,-6.3929,-6.391,-6.3953,-6.3881,-6.3902,-6.3926,-6.3914,-6.3912,-6.4059,-6.3999,-6.4064,-6.4159,-6.4199,-6.4217,-6.4233,-6.4282,-6.43,-6.4074,-6.4075,-6.4075,0,-6.4082,-6.4114,-6.4055,-6.4089,-6.4089,-6.4006,-6.4055,-6.4047,-6.403,-6.4033,-6.3988,-6.4018,-6.3999,-6.4059,-6.4095,-6.4098,-6.4109,-6.4064,-6.4219,-6.4235,-6.4248,-6.4294,-6.4313,-6.4082,-6.4081,-6.4081,-6.408,0,-6.4227,-6.4252,-6.4295,-6.4281,-6.4288,-6.433,-6.4277,-6.4292,-6.425,-6.4219,-6.4265,-6.4241,-6.4243,-6.4256,-6.4215,-6.4311,-6.4286,-6.4233,-6.415,-6.4279,-6.4321,-6.4338,-6.4093,-6.409,-6.4088,-6.4086,0,0,-6.4438,-6.4396,-6.4412,-6.4405,-6.438,-6.4397,-6.4439,-6.4442,-6.4455,-6.4449,-6.4479,-6.4505,-6.4456,-6.4454,-6.4412,-6.4448,-6.4563,-6.4389,-6.4388,-6.4418,-6.4665,-6.4701,-6.4722,-6.4527,-6.453,-6.4533,-6.4665,0,-6.4569,-6.4632,-6.4583,-6.4656,-6.4677,-6.4603,-6.4638,-6.4627,-6.4601,-6.4616,-6.4588,-6.4606,-6.4541,-6.4539,-6.4572,-6.4542,-6.461,-6.4533,-6.4552,-6.4554,-6.4552,-6.4745,-6.4782,-6.4907,-6.4681,-6.4684,-6.4686,0,-6.4727,-6.4729,-6.4805,-6.4777,-6.4784,-6.4816,-6.4817,-6.4834,-6.4821,-6.48,-6.4801,-6.4751,-6.4789,-6.4716,-6.4767,-6.4715,-6.4722,-6.4709,-6.4713,-6.4706,-6.4623,-6.4739,-6.4946,-6.4963,-6.4712,-6.471,-6.4708,0,-6.4868,-6.4891,-6.4939,-6.4937,-6.4906,-6.493,-6.4919,-6.4902,-6.4909,-6.4911,-6.4915,-6.4922,-6.4925,-6.4932,-6.4886,-6.4837,-6.4943,-6.4865,-6.4924,-6.4925,-6.4943,-6.4941,-6.5149,-6.4959,-6.4958,-6.4958,-6.4958,0,-6.5015,-6.5063,-6.5001,-6.503,-6.5083,-6.5029,-6.5082,-6.5063,-6.5051,-6.5075,-6.5014,-6.5038,-6.4978,-6.4997,-6.4962,-6.5009,-6.5012,-6.4995,-6.4984,-6.4997,-6.4998,-6.4995,-6.4983,-6.4963,-6.4962,-6.4961,-6.496,0,-6.5176,-6.5138,-6.5185,-6.5155,-6.5149,-6.5188,-6.5162,-6.5188,-6.5162,-6.5194,-6.5198,-6.5156,-6.5175,-6.5132,-6.5145,-6.5122,-6.5188,-6.5166,-6.5191,-6.5182,-6.5242,-6.5235,-6.545,-6.5474,-6.5274,-6.5276,-6.5278,0,-6.5269,-6.5305,-6.528,-6.5292,-6.5285,-6.5306,-6.5313,-6.5264,-6.5274,-6.5265,-6.5292,-6.5307,-6.5315,-6.535,-6.532,-6.5331,-6.5305,-6.538,-6.5305,-6.5318,-6.53,-6.5296,-6.5299,-6.5393,-6.5395,-6.5397,-6.5399,0,-6.5437,-6.5417,-6.543,-6.5438,-6.5449,-6.5453,-6.5452,-6.5466,-6.5414,-6.5429,-6.5449,-6.5456,-6.5471,-6.5486,-6.5491,-6.5479,-6.543,-6.5424,-6.5437,-6.5447,-6.5459,-6.5449,-6.5227,-6.5417,-6.5415,-6.5414,-6.5413,-6.5412,-6.5563,-6.5591,-6.5579,-6.5596,-6.5592,-6.5594,-6.5617,-6.5595,-6.5611,-6.5619,-6.5591,-6.5617,-6.5607,-6.5609,-6.5604,-6.5624,-6.559,-6.561,-6.5614,-6.5618,-6.5626,-6.5462,-6.5625,-6.5625,-6.5624,-6.5624,-6.5623,0,-6.5723,-6.5713,-6.5731,-6.5732,-6.5747,-6.5705,-6.5703,-6.5717,-6.5742,-6.5738,-6.5749,-6.5772,-6.5788,-6.5763,-6.5774,-6.5796,-6.5773,-6.58,-6.5794,-6.5792,-6.5658,-6.5643,-6.5817,-6.5817,-6.5817,-6.5817,-6.5817,-6.5817,-6.5807,-6.5853,-6.5834,-6.5877,-6.5867,-6.5893,-6.5896,-6.5898,-6.5894,-6.5924,-6.5937,-6.5922,-6.5909,-6.592,-6.5933,-6.5926,-6.593,-6.5964,-6.5948,-6.5821,-6.5802,-6.5783,-6.5768,-6.5967,-6.5967,-6.608,-6.6081,-6.6082]},{"header":{"parameterUnit":"m.s-1","parameterCategory":1,"la1":30.2991,"la2":30.254,"lo1":-89.0895,"lo2":-89.0444,"dy":0.0017,"dx":0.0017,"nx":28,"ny":28,"refTime":"2024-08-30T21:00:00:Z","depth":0,"parameterNumber":3,"parameterNumberName":"V-component_of_WINDS"},"data":[0,0,0,0,0,0,0,0,0,0,0,0,0,0,0,0,0,0,0,0,0,0,0,0,0,0,0,0,0,0,0,0,0,0,0,0,0,0,0,0,0,0,0,0,0,0,0,0,0,0,0,0,0,0,0,0,0,0,2.5171,2.5173,0,2.5351,2.5353,2.5355,2.5441,2.5441,2.5441,2.5441,2.5625,2.563,2.5635,0,0,0,0,0,0,0,0,0,0,0,0,0,2.4899,2.4904,2.517,2.5173,2.5175,2.5351,2.5353,2.5356,2.5441,2.5441,2.5441,2.5441,2.5623,2.5629,2.5635,0,0,0,0,0,0,0,0,0,0,0,0,0,2.5042,2.4905,2.517,2.5239,2.5247,2.535,2.5354,2.5357,2.5441,2.5441,2.5441,2.5441,2.5622,2.5629,2.5636,2.5685,0,0,2.5659,2.5662,0,0,0,0,0,0,0,0,2.5034,2.5052,2.5226,2.5234,2.5243,2.5374,2.5326,2.5467,2.5441,2.5367,2.5441,2.5441,2.5541,2.5556,2.559,2.5694,2.5702,2.566,2.5664,2.5667,2.567,0,0,0,0,0,0,0,2.5024,2.5045,2.5242,2.5229,2.5239,2.5261,2.5281,2.5353,2.5453,2.5374,2.538,2.5401,2.5546,2.5582,2.5595,2.5704,2.566,2.5666,2.5671,2.5674,2.5859,2.586,0,0,0,0,0,0,2.5003,2.5036,2.5236,2.5247,2.5136,2.5265,2.5288,2.5332,2.5452,2.5471,2.54,2.5404,2.557,2.5586,2.5601,2.5668,2.5667,2.5674,2.5679,2.5859,2.5859,2.586,0,0,0,0,0,0,2.4997,2.502,2.5229,2.5144,2.5172,2.527,2.5319,2.5335,2.5372,2.5473,2.5491,2.5419,2.557,2.5591,2.5664,2.5676,2.5678,2.5685,2.5858,2.5859,2.586,2.58,0,0,0,0,0,0,2.4988,2.5017,2.5037,2.5143,2.5176,2.5288,2.5319,2.5339,2.5385,2.5391,2.5495,2.5512,2.5572,2.5652,2.5672,2.5686,2.569,2.5858,2.5859,2.5859,2.5802,2.5799,2.5796,0,0,0,0,0,2.4978,2.5012,2.5037,2.5061,2.5203,2.5289,2.5308,2.5376,2.5385,2.5406,2.5471,2.5509,2.5671,2.5659,2.5681,2.5698,2.5857,2.5858,2.5859,2.5803,2.5799,2.5796,0,0,0,0,0,0,2.4904,2.5027,2.5056,2.5126,2.5196,2.5303,2.5331,2.5369,2.5438,2.5441,2.5523,2.5545,2.5611,2.5662,2.5647,2.5753,2.5768,2.5773,2.5717,2.5715,2.5712,2.5699,2.5697,0,0,0,0,0,2.4895,2.4955,2.506,2.5111,2.5145,2.5232,2.5272,2.5318,2.5394,2.5425,2.5495,2.5567,2.5635,2.5677,2.5745,2.5809,2.5834,2.5832,2.5829,2.5826,2.583,2.5869,2.587,2.5863,2.5863,2.5863,0,0,2.4879,2.4954,2.4986,2.5098,2.5158,2.5219,2.5256,2.5318,2.5364,2.5434,2.5508,2.5562,2.5648,2.5717,2.5751,2.5761,2.5838,2.5828,2.5825,2.583,2.587,2.5871,2.5871,2.5864,2.5864,2.5864,0,0,2.4879,2.4942,2.4992,2.5051,2.5142,2.52,2.5211,2.5313,2.5352,2.5427,2.5481,2.5537,2.5651,2.5711,2.5756,2.578,2.5818,2.5799,2.5786,2.5823,2.5823,2.5824,2.5834,2.5836,2.5803,2.5803,2.5803,0,2.4847,2.4941,2.5012,2.5072,2.512,2.5186,2.5238,2.5292,2.54,2.5432,2.5441,2.5587,2.565,2.5734,2.574,2.5774,2.5791,2.5788,2.5818,2.5819,2.5821,2.5831,2.5835,2.58,2.58,2.5801,2.5801,0,2.4897,2.4961,2.499,2.5094,2.5145,2.52,2.528,2.5323,2.5365,2.5422,2.5498,2.5576,2.5661,2.5684,2.5725,2.5775,2.5779,2.5802,2.5819,2.5818,2.5829,2.5833,2.5796,2.5797,2.5798,2.5799,0,0,2.4856,2.4999,2.5008,2.5056,2.5162,2.5212,2.5271,2.5354,2.539,2.5462,2.5514,2.5609,2.5632,2.5683,2.5732,2.5764,2.578,2.5784,2.5787,2.5781,2.584,2.5823,2.5826,2.5805,2.5806,2.5807,2.5834,0,2.4872,2.498,2.5046,2.5128,2.5188,2.5252,2.5303,2.5373,2.5428,2.5487,2.5548,2.5615,2.5639,2.567,2.5705,2.577,2.5793,2.5769,2.5854,2.5857,2.5832,2.5832,2.5814,2.5835,2.5838,2.5839,2.584,0,2.4905,2.4976,2.5063,2.5163,2.5191,2.5235,2.5318,2.5374,2.5455,2.5492,2.555,2.5599,2.5664,2.5675,2.5766,2.5748,2.5787,2.5824,2.5827,2.5838,2.5848,2.5844,2.5843,2.5847,2.5847,2.5846,2.5846,0,2.4867,2.4985,2.5053,2.5092,2.5209,2.5239,2.529,2.5371,2.5417,2.5489,2.552,2.5598,2.5641,2.5701,2.577,2.5772,2.5855,2.5871,2.5888,2.5886,2.5903,2.5901,2.591,2.5926,2.5926,2.5926,2.5926,0,2.4879,2.493,2.5038,2.5079,2.5139,2.5215,2.5272,2.5327,2.5399,2.5453,2.5513,2.5562,2.5651,2.5711,2.5765,2.5833,2.5851,2.5884,2.5898,2.5879,2.5875,2.5907,2.5907,2.5927,2.5927,2.5927,2.5926,0,2.4847,2.4921,2.5,2.5105,2.5132,2.5171,2.5262,2.5305,2.5363,2.543,2.5451,2.5541,2.5616,2.5691,2.579,2.5827,2.5894,2.5912,2.5866,2.5874,2.5888,2.5886,2.5917,2.5926,2.5935,2.5934,2.5934,0,2.485,2.4891,2.5,2.5041,2.509,2.5155,2.5203,2.5279,2.5327,2.5423,2.5455,2.5533,2.5601,2.5716,2.5791,2.5868,2.589,2.5895,2.5902,2.5882,2.5891,2.5889,2.5894,2.5893,2.5892,2.5892,2.5892,0,2.4847,2.4882,2.4949,2.5029,2.5085,2.5151,2.522,2.525,2.534,2.539,2.5467,2.5519,2.5622,2.57,2.5786,2.5838,2.588,2.5889,2.5897,2.5879,2.5851,2.5868,2.586,2.5888,2.5889,2.5889,2.5889,2.5889,2.4834,2.4874,2.4958,2.503,2.509,2.5153,2.52,2.5263,2.5329,2.5419,2.546,2.5537,2.5619,2.5739,2.579,2.5852,2.5864,2.5875,2.5878,2.588,2.5876,2.5841,2.5868,2.5868,2.5868,2.5869,2.5869,0,2.4836,2.4893,2.4959,2.5054,2.5111,2.5146,2.5224,2.527,2.5337,2.541,2.5475,2.5564,2.564,2.5721,2.5802,2.5836,2.5857,2.5854,2.5853,2.5865,2.5861,2.5846,2.5836,2.5836,2.5836,2.5836,2.5836,2.5836,2.4843,2.4913,2.4958,2.5058,2.5116,2.5192,2.5234,2.5293,2.5351,2.5448,2.5511,2.5564,2.564,2.5727,2.5799,2.5821,2.5848,2.584,2.5867,2.5862,2.5865,2.5867,2.5854,2.5845,2.5845,2.5866,2.5867,2.5867]}]]